Tantow, Poland

12:47 AM CET on January 22, 2017 (GMT +0100)
Szczecin

Weather History for EPSC - September, 2013

Change the Weather History Date:

Saturday, September 7, 2013

  Actual Average Record
Temperature  
Mean Temperature 64 °F -  
Max Temperature 75 °F 63 °F 80 °F (2005)
Min Temperature 53 °F 47 °F 44 °F (2007)
Degree Days  
Heating Degree Days 1    
Growing Degree Days 14 (Base 50)    
Moisture  
Dew Point 49 °F    
Average Humidity 57    
Maximum Humidity 77    
Minimum Humidity 31    
Precipitation  
Precipitation 0.00 in 0.06 in - ()
Sea Level Pressure  
Sea Level Pressure 30.14 in    
Wind  
Wind Speed 8 mph ()    
Max Wind Speed 15 mph    
Max Gust Speed -    
Visibility 19.0 miles    
Events      
Averages and records for this station are not official NWS values.
T = Trace of Precipitation, MM = Missing Value Source: Averaged Metar Reports

Daily Weather History Graph

Daily Weather History Graph

Search for Another Location

Airport or City:

Trip Planner

Search our weather history database for the weather conditions in past years. The results will help you decide how hot, cold, wet, or windy it might be!

Date:

Astronomy

Sep. 07, 2013 Rise Set
Actual Time 6:21 AM CEST 7:36 PM CEST
Civil Twilight 5:45 AM CEST 8:12 PM CEST
Nautical Twilight 5:01 AM CEST 8:55 PM CEST
Astronomical Twilight 4:13 AM CEST 9:43 PM CEST
Moon 8:42 AM CEST (9/7) 7:56 PM CEST (9/7)
Length of Visible Light 14h 27m
Length of Day
13h 15m
Waxing Crescent, 4% of the Moon is Illuminated
Sep 7
Waxing Crescent
Sep 12
First Quarter
Sep 19
Full
Sep 27
Last Quarter
Oct 5
New

Hourly Weather History & Observations

Time (CEST) Temp. Dew Point Humidity Pressure Visibility Wind Dir Wind Speed Gust Speed Precip Events Conditions
12:00 AM 60.8 °F 46.4 °F 59% 30.09 in - ESE 9.2 mph - N/A   Clear
12:30 AM 59.0 °F 46.4 °F 63% 30.09 in - SE 6.9 mph - N/A   Clear
1:00 AM 59.0 °F 46.4 °F 63% 30.09 in - ESE 8.1 mph - N/A   Clear
1:30 AM 57.2 °F 46.4 °F 67% 30.09 in - ESE 6.9 mph - N/A   Clear
2:00 AM 57.2 °F 46.4 °F 67% 30.09 in - ESE 6.9 mph - N/A   Clear
2:30 AM 57.2 °F 46.4 °F 67% 30.09 in - ESE 6.9 mph - N/A   Clear
3:00 AM 57.2 °F 46.4 °F 67% 30.09 in - ESE 9.2 mph - N/A   Clear
3:30 AM 57.2 °F 46.4 °F 67% 30.09 in - ESE 9.2 mph - N/A   Clear
4:00 AM 57.2 °F 46.4 °F 67% 30.09 in - ESE 9.2 mph - N/A   Clear
4:30 AM 57.2 °F 46.4 °F 67% 30.09 in - ESE 9.2 mph - N/A   Clear
5:00 AM 55.4 °F 46.4 °F 72% 30.09 in - ESE 8.1 mph - N/A   Clear
5:30 AM 55.4 °F 46.4 °F 72% 30.09 in - ESE 8.1 mph - N/A   Clear
6:00 AM 55.4 °F 46.4 °F 72% 30.09 in - ESE 8.1 mph - N/A   Clear
6:30 AM 55.4 °F 46.4 °F 72% 30.12 in - ESE 8.1 mph - N/A   Clear
7:00 AM 53.6 °F 46.4 °F 77% 30.12 in - ESE 8.1 mph - N/A   Clear
7:30 AM 55.4 °F 48.2 °F 77% 30.12 in - ESE 8.1 mph - N/A   Clear
8:00 AM 56 °F 49 °F 69% 30.14 in 19 mi East 6.7 mph - -  
8:00 AM 57.2 °F 48.2 °F 72% 30.12 in - ESE 9.2 mph - N/A   Clear
8:30 AM 60.8 °F 48.2 °F 63% 30.15 in - ESE 10.4 mph - N/A   Clear
9:00 AM 62.6 °F 50.0 °F 63% 30.15 in - SE 10.4 mph - N/A   Clear
9:30 AM 64.4 °F 50.0 °F 59% 30.15 in - SE 10.4 mph - N/A   Clear
10:00 AM 66.2 °F 51.8 °F 60% 30.15 in - SE 11.5 mph - N/A   Clear
10:30 AM 68.0 °F 51.8 °F 56% 30.15 in - SE 12.7 mph - N/A   Clear
11:00 AM 69 °F 52 °F 44% 30.17 in 19 mi ESE 11.2 mph - -  
11:00 AM 68.0 °F 50.0 °F 52% 30.15 in - SE 12.7 mph - N/A   Clear
11:30 AM 69.8 °F 50.0 °F 49% 30.15 in - SE 12.7 mph - N/A   Clear
12:00 PM 71.6 °F 48.2 °F 43% 30.15 in - SE 12.7 mph - N/A   Clear
12:30 PM 71.6 °F 48.2 °F 43% 30.18 in - SE 12.7 mph - N/A   Clear
1:00 PM 73.4 °F 48.2 °F 41% 30.15 in - SE 15.0 mph - N/A   Clear
1:30 PM 73.4 °F 50.0 °F 44% 30.15 in - SE 12.7 mph - N/A   Clear
2:00 PM 75 °F 50 °F 31% 30.17 in 25 mi ESE 13.4 mph - -  
2:00 PM 73.4 °F 50.0 °F 44% 30.15 in - ESE 11.5 mph - N/A   Clear
2:30 PM 75.2 °F 51.8 °F 44% 30.15 in - SE 10.4 mph - N/A   Clear
3:00 PM 75.2 °F 50.0 °F 41% 30.15 in - SE 10.4 mph - N/A   Clear
3:30 PM 75.2 °F 51.8 °F 44% 30.15 in - SE 10.4 mph - N/A   Clear
4:00 PM 75.2 °F 51.8 °F 44% 30.15 in - ESE 10.4 mph - N/A   Clear
4:30 PM 75.2 °F 51.8 °F 44% 30.15 in - ESE 9.2 mph - N/A   Clear
5:00 PM 75 °F 51 °F 32% 30.15 in 22 mi ESE 13.4 mph - -  
5:00 PM 75.2 °F 51.8 °F 44% 30.15 in - ESE 9.2 mph - N/A   Clear
5:30 PM 75.2 °F 51.8 °F 44% 30.15 in - ESE 6.9 mph - N/A   Clear
6:00 PM 73.4 °F 51.8 °F 47% 30.15 in - East 6.9 mph - N/A   Clear
6:30 PM 73.4 °F 51.8 °F 47% 30.15 in - ESE 5.8 mph - N/A   Clear
7:00 PM 71.6 °F 51.8 °F 50% 30.15 in - East 4.6 mph - N/A   Clear
7:30 PM 68.0 °F 51.8 °F 56% 30.15 in - East 4.6 mph - N/A   Clear
8:00 PM 68.0 °F 50.0 °F 52% 30.15 in - East 4.6 mph - N/A   Clear
8:30 PM 64.4 °F 50.0 °F 59% 30.18 in - East 4.6 mph - N/A   Clear
9:00 PM 62.6 °F 50.0 °F 63% 30.18 in - East 5.8 mph - N/A   Clear
9:30 PM 62.6 °F 50.0 °F 63% 30.18 in - ESE 5.8 mph - N/A   Clear
10:00 PM 60.8 °F 50.0 °F 68% 30.18 in - East 5.8 mph - N/A   Clear
10:30 PM 60.8 °F 50.0 °F 68% 30.18 in - ESE 4.6 mph - N/A   Clear
11:00 PM 57 °F 50 °F 72% 30.19 in 19 mi East 4.5 mph - -  
11:00 PM 60.8 °F 50.0 °F 68% 30.18 in - ESE 5.8 mph - N/A   Clear
11:30 PM 60.8 °F 48.2 °F 63% 30.18 in - East 8.1 mph - N/A   Clear